761  
AXUS43 KLBF 160610  
MISLBF  
 
WESTERN AND NORTH CENTRAL NEBRASKA HOURLY WEATHER ROUNDUP  
NATIONAL WEATHER SERVICE NORTH PLATTE NE  
100 AM CDT THU AUG 16 2018  
 
NOTE: "FAIR" INDICATES FEW OR NO CLOUDS BELOW 12,000 FEET WITH NO  
SIGNIFICANT WEATHER AND/OR OBSTRUCTIONS TO VISIBILITY.  
 
NOTE: STATIONS NOT REPORTING VARIABLES SUCH AS SKY/WEATHER OR  
PRESSURE ARE PROVIDED BY RAWS AND APRS NETWORKS AND ARE NOT UNDER  
NATIONAL WEATHER SERVICE QUALITY CONTROL.  
   
..OBSERVATIONS IN AND NEAR THE EASTERN PANHANDLE OF NEBRASKA
 
 
 
CITY SKY/WX TMP DP RH WIND PRES REMARKS  
PINE RIDGE PTCLDY 62 55 77 VRB3 30.06S  
GORDON FAIR 59 54 85 CALM 30.07S  
CHADRON CLEAR 64 54 69 CALM 30.06R  
ALLIANCE CLEAR 57 56 96 E3 30.08S  
SIDNEY CLEAR 60 57 89 E9 30.09S  
CRESCENT LAKE N/A 60 59 97 E5 N/A  

 
   
..OBSERVATIONS IN NORTHERN NEBRASKA AND FAR SOUTHERN SOUTH DAKOTA
 
 
 
CITY SKY/WX TMP DP RH WIND PRES REMARKS  
WINNER FAIR 62 58 86 VRB3 30.00R  
VALENTINE PTCLDY 61 60 97 S6 30.03S  
AINSWORTH CLOUDY 60 60 100 S9 30.05R  
O'NEILL CLOUDY 63 62 95 NW12 30.02R  
THEDFORD PTCLDY 58 55 90 N3 30.05S  
BROKEN BOW MOCLDY 62 60 93 CALM 30.01F  
ORD CLOUDY 65 62 90 VRB3 29.99S  
ALBION CLOUDY 68 65 92 N12 30.01S  
EWING N/A 63 62 95 E6G13 N/A  
CHAMBERS N/A 62 60 95 CALM N/A  
VALENTINE NWR N/A 61 59 94 CALM N/A  

 
   
..OBSERVATIONS IN SOUTHWEST NEBRASKA AND FAR NORTHEAST COLORADO
 
 
 
CITY SKY/WX TMP DP RH WIND PRES REMARKS  
WRAY FAIR 66 52 59 W7 30.01S  
HOLYOKE FAIR 63 59 88 NE6 30.04S  
IMPERIAL CLEAR 64 62 93 NE6 30.01R  
OGALLALA CLEAR 65 63 94 E7 30.03S  
NORTH PLATTE CLEAR 65 63 93 SE7 30.01F  
MCCOOK PTCLDY 66 63 90 E5 29.97S  
LEXINGTON CLOUDY 68 65 92 NE8 30.00S  
GOTHENBURG N/A 67 61 81 NE6 N/A  
CALLAWAY N/A 66 64 94 E3 N/A  

 
   
..OBSERVATIONS IN CENTRAL LINCOLN COUNTY AREA
 
 
 
CITY SKY/WX TMP DP RH WIND PRES REMARKS  
N.P. AIRPORT CLEAR 65 63 93 SE7 30.01F  
N.P. DOWNTOWN N/A 64 64 99 CALM N/A  
N.P. SOUTHEAST N/A 64 62 94 CALM N/A  

 
   
..OBSERVATIONS ACROSS THE ROCKIES AND WESTERN HIGH PLAINS
 
 
 
CITY SKY/WX TMP DP RH WIND PRES REMARKS  
SHERIDAN CLEAR 57 51 80 SW3 30.05R  
CASPER CLEAR 62 44 51 NE10 30.14R  
LARAMIE CLEAR 59 46 62 SE9 30.24S  
CHEYENNE CLEAR 62 51 67 CALM 30.19S  
PINE BLUFF FAIR 59 54 82 NE3 30.13S  
SCOTTSBLUFF CLEAR 60 59 96 NE6 30.09R  
DENVER PTCLDY 67 51 56 CALM 30.11S  
STEAMBOAT FAIR 65 31 27 SE7 30.22R  
COPPER MTN CLEAR 55 25 30 W10 30.64  
LEADVILLE CLEAR 50 26 39 E8 30.47S  
ASPEN PTCLDY 59 35 40 SW8 30.32R  
GUNNISON MOCLDY 61 41 47 CALM 30.33R  
TELLURIDE CLOUDY 59 43 55 SE5 30.47R  

 
   
..OBSERVATIONS ACROSS THE NORTHERN PLAINS
 
 
 
CITY SKY/WX TMP DP RH WIND PRES REMARKS  
RAPID CITY PTCLDY 58 54 86 SW3 30.03S  
PIERRE PTCLDY 61 61 100 CALM 29.96S  
SIOUX FALLS CLOUDY 69 65 86 E3 29.98S  
ABERDEEN CLOUDY 67 64 90 SE5 29.97R  
WILLISTON CLEAR 72 53 51 E5 29.92S  
DICKINSON CLEAR 60 52 74 S8 29.96R  
BISMARCK PTCLDY 62 55 77 NE8 29.96S  
FARGO FAIR 58 54 86 CALM 29.95S  

 
   
..OBSERVATIONS ACROSS THE CENTRAL AND SOUTHERN PLAINS
 
 
 
CITY SKY/WX TMP DP RH WIND PRES REMARKS  
OMAHA PTCLDY 72 69 90 CALM 29.94S  
GRAND ISLAND CLEAR 67 65 93 NE6 29.99F FOG  
KANSAS CITY MOCLDY 72 70 93 W6 29.93F  
WICHITA PTCLDY 73 69 87 E5 29.95F  
DODGE CITY CLEAR 69 64 84 SE8 30.00R  
OKLAHOMA CITY PTCLDY 75 69 81 NE6 29.96R  
DALLAS CLEAR 87 68 52 S12 29.93S HX 90  
AMARILLO CLOUDY 73 63 70 NW22G33 30.13R THUNDER  

 
 
 
CLICK HERE TO GO TO PREVIOUS BULLETINS.

The Nexlab NE Page Main Text Page